Location: Lombard
(41.8800°N, 88.0080°W)
Time: 00:18:17
(UTC-05:00)

Gurwin Techsat 1B - Pass Details

Date: 23 May 2022
Orbit: 811 x 814 km, 98.8° (Epoch: 27 June)

Event Time Altitude Azimuth Distance (km) Brightness Sun altitude
Rises 03:40:32 0° 11° (N) 3,344 12.9 -16.0°
Reaches altitude 10° 03:42:53 10° 9° (N) 2,408 11.9 -15.7°
Maximum altitude 03:48:10 70° 287° (WNW) 864 8.6 -15.0°
Enters shadow 03:51:49 20° 208° (SSW) 1,773 9.8 -14.6°
